TimeCDT,TemperatureF,Dew PointF,Humidity,Sea Level PressureIn,VisibilityMPH,Wind Direction,Wind SpeedMPH,Gust SpeedMPH,PrecipitationIn,Events,Conditions,WindDirDegrees,DateUTC
12:53 AM,17.1,9.0,71,30.28,10.0,NW,10.4,-,N/A,,Clear,320,2013-04-01 05:53:00
1:53 AM,16.0,8.1,71,30.28,10.0,NW,5.8,-,N/A,,Clear,320,2013-04-01 06:53:00
2:53 AM,15.1,8.1,74,30.30,10.0,WNW,6.9,-,N/A,,Clear,300,2013-04-01 07:53:00
3:53 AM,14.0,8.1,77,30.30,10.0,West,6.9,-,N/A,,Clear,280,2013-04-01 08:53:00
4:53 AM,15.1,7.0,70,30.31,10.0,WNW,11.5,-,N/A,,Clear,300,2013-04-01 09:53:00
5:53 AM,12.9,7.0,77,30.32,10.0,NW,8.1,-,N/A,,Clear,310,2013-04-01 10:53:00
6:53 AM,12.9,6.1,74,30.34,10.0,NW,6.9,-,N/A,,Clear,310,2013-04-01 11:53:00
7:53 AM,12.9,6.1,74,30.36,10.0,NW,8.1,-,N/A,,Clear,310,2013-04-01 12:53:00
8:53 AM,16.0,7.0,68,30.37,10.0,NW,8.1,-,N/A,,Clear,320,2013-04-01 13:53:00
9:53 AM,18.0,9.0,68,30.37,10.0,NW,8.1,-,N/A,,Clear,320,2013-04-01 14:53:00
10:53 AM,21.0,10.9,65,30.38,10.0,WNW,8.1,-,N/A,,Clear,290,2013-04-01 15:53:00
11:53 AM,24.1,12.9,62,30.38,10.0,NW,6.9,-,N/A,,Clear,320,2013-04-01 16:53:00
12:53 PM,26.1,12.9,58,30.38,10.0,NW,8.1,-,N/A,,Clear,310,2013-04-01 17:53:00
1:53 PM,28.0,14.0,56,30.37,10.0,NNW,11.5,-,N/A,,Clear,330,2013-04-01 18:53:00
2:53 PM,28.9,15.1,56,30.36,10.0,West,9.2,-,N/A,,Clear,280,2013-04-01 19:53:00
3:53 PM,30.0,15.1,54,30.36,10.0,NW,10.4,-,N/A,,Clear,320,2013-04-01 20:53:00
4:53 PM,30.0,16.0,56,30.35,10.0,NW,8.1,-,N/A,,Clear,320,2013-04-01 21:53:00
5:53 PM,30.0,16.0,56,30.34,10.0,NNW,10.4,-,N/A,,Clear,330,2013-04-01 22:53:00
6:53 PM,28.9,16.0,58,30.34,10.0,NNW,8.1,-,N/A,,Clear,340,2013-04-01 23:53:00
7:53 PM,26.1,17.1,69,30.32,10.0,NNW,4.6,-,N/A,,Clear,340,2013-04-02 00:53:00
8:53 PM,25.0,16.0,69,30.32,10.0,Calm,Calm,-,N/A,,Clear,0,2013-04-02 01:53:00
9:53 PM,23.0,15.1,72,30.33,10.0,West,5.8,-,N/A,,Clear,260,2013-04-02 02:53:00
10:53 PM,21.0,15.1,78,30.34,10.0,West,5.8,-,N/A,,Clear,280,2013-04-02 03:53:00
11:53 PM,19.9,14.0,78,30.32,10.0,WNW,3.5,-,N/A,,Clear,300,2013-04-02 04:53:00